EW0322 Weather Reports


Display with metric or nautical units.
time (UTC)temp
F
wind
direction
speed
MPH
gust
MPH
rain 1hr
in
rain 24hr
in
rain mn
in
humidity
%
barometer
mb
20260903074504 82 244 2.0 11.0 0.00 0.00 0.00 40 1004.1
20260903073101 83 237 4.0 12.0 0.00 0.00 0.00 37 1004.3
20260903071555 85 234 2.0 7.0 0.00 0.00 0.00 31 1004.1
20260903070051 85 232 1.0 3.0 0.00 0.00 0.00 31 1003.9
20260903064550 86 232 0.0 3.0 0.00 0.00 0.00 31 1003.8
20260903063047 86 232 0.0 3.0 0.00 0.00 0.00 31 1003.7
20260903061552 86 232 1.0 6.0 0.00 0.00 0.00 30 1003.9
20260903060043 86 232 1.0 4.0 0.00 0.00 0.00 30 1003.9
20260903054547 87 232 0.0 2.0 0.00 0.00 0.00 29 1004.0
20260903053100 87 232 0.0 0.0 0.00 0.00 0.00 29 1003.9
20260903051542 87 232 0.0 1.0 0.00 0.00 0.00 28 1003.9
20260903050040 88 232 0.0 0.0 0.00 0.00 0.00 28 1004.0
20260903044550 88 232 0.0 0.0 0.00 0.00 0.00 28 1003.9
20260903043038 88 232 0.0 0.0 0.00 0.00 0.00 28 1003.9
20260903041538 88 232 0.0 0.0 0.00 0.00 0.00 28 1003.9
20260903040039 89 232 0.0 0.0 0.00 0.00 0.00 27 1003.8
20260903034536 89 232 0.0 0.0 0.00 0.00 0.00 27 1003.6
20260903033037 90 232 0.0 0.0 0.00 0.00 0.00 26 1003.5
20260903031537 90 232 0.0 0.0 0.00 0.00 0.00 26 1003.3
20260903030040 91 232 0.0 0.0 0.00 0.00 0.00 25 1003.2
20260903024541 91 232 0.0 0.0 0.00 0.00 0.00 25 1002.9
20260903023034 91 232 0.0 3.0 0.00 0.00 0.00 25 1002.6
20260903021536 92 232 0.0 1.0 0.00 0.00 0.00 25 1002.7
20260903020034 92 232 0.0 3.0 0.00 0.00 0.00 24 1002.6
20260903014532 92 232 0.0 3.0 0.00 0.00 0.00 23 1002.4
20260903013032 93 232 0.0 4.0 0.00 0.00 0.00 23 1002.3
20260903011540 94 231 0.0 1.0 0.00 0.00 0.00 22 1002.2
20260903010030 94 231 0.0 6.0 0.00 0.00 0.00 22 1002.2
20260903004532 94 232 0.0 3.0 0.00 0.00 0.00 21 1002.3
20260903003030 95 232 2.0 5.0 0.00 0.00 0.00 22 1002.2
20260903001528 95 234 1.0 5.0 0.00 0.00 0.00 22 1002.2
20260903000027 95 236 2.0 5.0 0.00 0.00 0.00 22 1002.3
20260902234527 95 229 3.0 9.0 0.00 0.00 0.00 22 1002.3
20260902233031 96 227 0.0 7.0 0.00 0.00 0.00 21 1002.3
20260902231524 98 225 1.0 4.0 0.00 0.00 0.00 20 1002.5
20260902230022 97 222 0.0 9.0 0.00 0.00 0.00 21 1002.7
20260902224519 98 230 2.0 7.0 0.00 0.00 0.00 21 1002.8
20260902223019 98 233 1.0 8.0 0.00 0.00 0.00 21 1003.0
20260902221519 97 234 2.0 10.0 0.00 0.00 0.00 21 1003.2
20260902220016 98 216 0.0 4.0 0.00 0.00 0.00 22 1003.3
20260902214513 99 216 0.0 7.0 0.00 0.00 0.00 21 1003.6
20260902213011 97 214 1.0 6.0 0.00 0.00 0.00 22 1003.7
20260902211509 95 209 3.0 8.0 0.00 0.00 0.00 23 1004.0
20260902210006 98 229 3.0 9.0 0.00 0.00 0.00 22 1004.2
20260902204502 97 225 0.0 5.0 0.00 0.00 0.00 23 1004.5
20260902203104 96 223 2.0 7.0 0.00 0.00 0.00 23 1004.8
20260902201629 96 232 0.0 5.0 0.00 0.00 0.00 24 1005.0
20260902200105 95 228 2.0 9.0 0.00 0.00 0.00 24 1005.4
20260902194556 95 234 0.0 9.0 0.00 0.00 0.00 25 1005.6
20260902193052 95 234 0.0 8.0 0.00 0.00 0.00 25 1005.8
20260902191552 96 238 1.0 7.0 0.00 0.00 0.00 24 1005.9
20260902190047 95 230 1.0 5.0 0.00 0.00 0.00 25 1006.1
20260902184545 95 235 0.0 6.0 0.00 0.00 0.00 26 1006.5
20260902183047 92 229 2.0 7.0 0.00 0.00 0.00 27 1006.8
20260902181537 92 232 2.0 6.0 0.00 0.00 0.00 27 1007.0
20260902180033 90 230 2.0 7.0 0.00 0.00 0.00 28 1007.4
20260902174530 90 229 3.0 9.0 0.00 0.00 0.00 28 1007.5
20260902173028 90 232 3.0 7.0 0.00 0.00 0.00 30 1007.7
20260902171526 89 236 0.0 8.0 0.00 0.00 0.00 30 1007.7
20260902170023 89 226 1.0 8.0 0.00 0.00 0.00 31 1007.8
20260902164519 87 232 3.0 6.0 0.00 0.00 0.00 32 1007.9
20260902163015 87 237 2.0 8.0 0.00 0.00 0.00 33 1008.0
20260902161511 87 230 0.0 8.0 0.00 0.00 0.00 33 1007.9
20260902160009 86 234 3.0 9.0 0.00 0.00 0.00 34 1007.8
20260902154501 84 234 3.0 9.0 0.00 0.00 0.00 36 1007.9
20260902153100 83 234 2.0 9.0 0.00 0.00 0.00 38 1007.8
20260902151600 82 233 2.0 8.0 0.00 0.00 0.00 40 1007.9
20260902150049 81 238 1.0 9.0 0.00 0.00 0.00 41 1007.8
20260902144548 81 240 4.0 7.0 0.00 0.00 0.00 43 1007.8
20260902143040 80 240 2.0 7.0 0.00 0.00 0.00 43 1007.7
20260902141536 79 240 0.0 0.0 0.00 0.00 0.00 45 1007.6
20260902140036 78 240 0.0 2.0 0.00 0.00 0.00 46 1007.6
20260902134527 77 240 0.0 4.0 0.00 0.00 0.00 46 1007.4
20260902133022 77 240 0.0 1.0 0.00 0.00 0.00 46 1007.2
20260902131518 76 240 0.0 3.0 0.00 0.00 0.00 48 1007.1
20260902130016 76 240 0.0 0.0 0.00 0.00 0.00 48 1006.9
20260902124517 76 240 0.0 0.0 0.00 0.00 0.00 49 1006.7
20260902123010 76 240 0.0 0.0 0.00 0.00 0.00 48 1006.5
20260902121508 76 240 0.0 3.0 0.00 0.00 0.00 48 1006.4
20260902120010 76 240 1.0 4.0 0.00 0.00 0.00 48 1006.5
20260902114607 76 240 0.0 3.0 0.00 0.00 0.00 47 1006.4
20260902113005 77 240 1.0 3.0 0.00 0.00 0.00 47 1006.4
20260902111504 77 240 0.0 1.0 0.00 0.00 0.00 46 1006.3
20260902110003 77 240 0.0 5.0 0.00 0.00 0.00 46 1006.2
20260902104600 78 240 2.0 5.0 0.00 0.00 0.00 45 1006.2
20260902103106 78 240 2.0 5.0 0.00 0.00 0.00 44 1006.2
20260902101559 79 240 2.0 7.0 0.00 0.00 0.00 43 1006.1
20260902100055 79 240 0.0 5.0 0.00 0.00 0.00 43 1006.1
20260902094553 79 240 2.0 5.0 0.00 0.00 0.00 42 1006.0
20260902093121 80 240 3.0 5.0 0.00 0.00 0.00 41 1006.1
20260902091554 80 240 1.0 7.0 0.00 0.00 0.00 40 1006.2
20260902090056 80 240 2.0 7.0 0.00 0.00 0.00 40 1006.2
20260902084554 81 240 1.0 7.0 0.00 0.00 0.00 38 1006.1
20260902083051 81 240 1.0 7.0 0.00 0.00 0.00 37 1006.2
20260902081557 81 240 0.0 4.0 0.00 0.00 0.00 36 1006.3
20260902080043 81 240 0.0 0.0 0.00 0.00 0.00 36 1006.3